Time,TemperatureF,DewpointF,PressureIn,WindDirection,WindDirectionDegrees,WindSpeedMPH,WindSpeedGustMPH,Humidity,HourlyPrecipIn,Conditions,Clouds,dailyrainin,SoftwareType,DateUTC
2013-04-29 00:02:00,63.0,55.0,29.71,SSW,193,0.0,3.0,75,0.00,,,0.00,,2013-04-29 05:02:00,
2013-04-29 00:12:00,63.0,55.0,29.71,SSW,193,0.0,3.0,75,0.00,,,0.00,,2013-04-29 05:12:00,
2013-04-29 00:22:00,62.0,55.0,29.72,SSW,193,1.0,2.0,77,0.00,,,0.00,,2013-04-29 05:22:00,
2013-04-29 00:32:00,62.0,54.0,29.72,NW,311,0.0,4.0,76,0.00,,,0.00,,2013-04-29 05:32:00,
2013-04-29 00:42:00,62.0,54.0,29.72,NW,311,0.0,4.0,76,0.00,,,0.00,,2013-04-29 05:42:00,
2013-04-29 00:52:00,62.0,55.0,29.72,NW,311,0.0,2.0,77,0.00,,,0.00,,2013-04-29 05:52:00,
2013-04-29 01:02:00,61.0,54.0,29.72,NW,311,0.0,3.0,78,0.00,,,0.00,,2013-04-29 06:02:00,
2013-04-29 01:11:00,61.0,54.0,29.72,NW,311,0.0,3.0,78,0.00,,,0.00,,2013-04-29 06:11:00,
2013-04-29 01:21:00,59.0,54.0,29.73,WNW,296,0.0,3.0,82,0.00,,,0.00,,2013-04-29 06:21:00,
2013-04-29 01:32:00,59.0,54.0,29.72,WNW,296,2.0,2.0,83,0.00,,,0.00,,2013-04-29 06:32:00,
2013-04-29 01:42:00,59.0,54.0,29.72,WNW,296,2.0,2.0,83,0.00,,,0.00,,2013-04-29 06:42:00,
2013-04-29 01:52:00,58.0,53.0,29.72,WNW,296,0.0,1.0,83,0.00,,,0.00,,2013-04-29 06:52:00,
2013-04-29 02:01:00,59.0,54.0,29.72,WNW,296,1.0,3.0,85,0.00,,,0.00,,2013-04-29 07:01:00,
2013-04-29 02:11:00,59.0,54.0,29.72,WNW,296,1.0,3.0,85,0.00,,,0.00,,2013-04-29 07:11:00,
2013-04-29 02:21:00,59.0,54.0,29.72,WNW,296,0.0,1.0,85,0.00,,,0.00,,2013-04-29 07:21:00,
2013-04-29 02:32:00,59.0,52.0,29.71,WNW,296,0.0,2.0,77,0.00,,,0.00,,2013-04-29 07:32:00,
2013-04-29 02:41:00,59.0,52.0,29.71,WNW,296,0.0,2.0,77,0.00,,,0.00,,2013-04-29 07:41:00,
2013-04-29 02:52:00,59.0,50.0,29.71,WNW,296,0.0,3.0,71,0.00,,,0.00,,2013-04-29 07:52:00,
2013-04-29 03:02:00,59.0,50.0,29.70,WNW,296,0.0,0.0,72,0.00,,,0.00,,2013-04-29 08:02:00,
2013-04-29 03:11:00,59.0,50.0,29.70,WNW,296,0.0,0.0,72,0.00,,,0.00,,2013-04-29 08:11:00,
2013-04-29 03:21:00,57.0,51.0,29.70,WNW,296,0.0,1.0,79,0.00,,,0.00,,2013-04-29 08:21:00,
2013-04-29 03:31:00,57.0,49.0,29.70,WNW,296,2.0,3.0,74,0.00,,,0.00,,2013-04-29 08:31:00,
2013-04-29 03:42:00,57.0,49.0,29.70,WNW,296,2.0,3.0,74,0.00,,,0.00,,2013-04-29 08:42:00,
2013-04-29 03:52:00,57.0,48.0,29.70,NW,322,0.0,5.0,72,0.00,,,0.00,,2013-04-29 08:52:00,
2013-04-29 04:01:00,58.0,49.0,29.70,NNW,330,2.0,4.0,72,0.00,,,0.00,,2013-04-29 09:01:00,
2013-04-29 04:12:00,58.0,49.0,29.70,NNW,330,2.0,4.0,72,0.00,,,0.00,,2013-04-29 09:12:00,
2013-04-29 04:21:00,58.0,49.0,29.72,WNW,299,3.0,6.0,72,0.00,,,0.00,,2013-04-29 09:21:00,
2013-04-29 04:32:00,58.0,48.0,29.70,North,355,3.0,10.0,69,0.00,,,0.00,,2013-04-29 09:32:00,
2013-04-29 04:42:00,58.0,48.0,29.70,North,355,3.0,10.0,69,0.00,,,0.00,,2013-04-29 09:42:00,
2013-04-29 04:53:00,57.0,47.0,29.70,NNE,31,1.0,9.0,69,0.00,,,0.00,,2013-04-29 09:53:00,
2013-04-29 05:02:00,56.0,47.0,29.70,NE,38,2.0,7.0,72,0.00,,,0.00,,2013-04-29 10:02:00,
2013-04-29 05:12:00,56.0,47.0,29.70,NE,38,2.0,7.0,72,0.00,,,0.00,,2013-04-29 10:12:00,
2013-04-29 05:23:00,56.0,47.0,29.72,NNW,342,6.0,11.0,72,0.00,,,0.00,,2013-04-29 10:23:00,
2013-04-29 05:32:00,57.0,48.0,29.73,NNW,328,4.0,11.0,72,0.00,,,0.00,,2013-04-29 10:32:00,
2013-04-29 05:42:00,57.0,48.0,29.73,NNW,328,4.0,11.0,72,0.00,,,0.00,,2013-04-29 10:42:00,
2013-04-29 05:52:00,57.0,48.0,29.72,North,5,8.0,12.0,72,0.00,,,0.00,,2013-04-29 10:52:00,
2013-04-29 06:02:00,56.0,48.0,29.70,North,360,3.0,7.0,75,0.00,,,0.00,,2013-04-29 11:02:00,
2013-04-29 06:12:00,56.0,48.0,29.70,North,360,3.0,7.0,75,0.00,,,0.00,,2013-04-29 11:12:00,
2013-04-29 06:21:00,56.0,49.0,29.70,NNE,32,3.0,4.0,76,0.00,,,0.00,,2013-04-29 11:21:00,
2013-04-29 06:32:00,55.0,48.0,29.71,North,350,0.0,4.0,77,0.00,,,0.00,,2013-04-29 11:32:00,
2013-04-29 06:41:00,55.0,48.0,29.71,North,350,0.0,4.0,77,0.00,,,0.00,,2013-04-29 11:41:00,
2013-04-29 06:52:00,55.0,49.0,29.72,North,350,0.0,4.0,79,0.00,,,0.00,,2013-04-29 11:52:00,
2013-04-29 07:01:00,55.0,49.0,29.72,North,349,0.0,1.0,79,0.00,,,0.00,,2013-04-29 12:01:00,
2013-04-29 07:12:00,55.0,49.0,29.72,North,349,0.0,1.0,79,0.00,,,0.00,,2013-04-29 12:12:00,
2013-04-29 07:22:00,54.0,48.0,29.72,North,350,0.0,5.0,81,0.00,,,0.00,,2013-04-29 12:22:00,
2013-04-29 07:31:00,54.0,49.0,29.74,North,351,3.0,7.0,82,0.00,,,0.00,,2013-04-29 12:31:00,
2013-04-29 07:41:00,54.0,49.0,29.74,North,351,3.0,7.0,82,0.00,,,0.00,,2013-04-29 12:41:00,
2013-04-29 07:52:00,55.0,50.0,29.75,North,350,3.0,8.0,82,0.00,,,0.00,,2013-04-29 12:52:00,
2013-04-29 08:01:00,55.0,50.0,29.74,North,350,1.0,9.0,83,0.00,,,0.00,,2013-04-29 13:01:00,
2013-04-29 08:11:00,55.0,50.0,29.74,North,350,1.0,9.0,83,0.00,,,0.00,,2013-04-29 13:11:00,
2013-04-29 08:21:00,55.0,50.0,29.71,NE,40,1.0,8.0,83,0.00,,,0.00,,2013-04-29 13:21:00,
2013-04-29 08:31:00,55.0,50.0,29.73,NNE,32,5.0,8.0,83,0.00,,,0.00,,2013-04-29 13:31:00,
2013-04-29 08:42:00,55.0,50.0,29.73,NNE,32,5.0,8.0,83,0.00,,,0.00,,2013-04-29 13:42:00,
2013-04-29 08:52:00,56.0,51.0,29.73,NE,34,4.0,10.0,82,0.00,,,0.00,,2013-04-29 13:52:00,
2013-04-29 09:01:00,56.0,50.0,29.72,NE,34,8.0,10.0,81,0.00,,,0.00,,2013-04-29 14:01:00,
2013-04-29 09:11:00,56.0,50.0,29.72,NE,34,8.0,10.0,81,0.00,,,0.00,,2013-04-29 14:11:00,
2013-04-29 09:21:00,56.0,50.0,29.76,North,360,2.0,8.0,81,0.00,,,0.00,,2013-04-29 14:21:00,
2013-04-29 09:32:00,56.0,51.0,29.73,NE,49,3.0,5.0,82,0.00,,,0.00,,2013-04-29 14:32:00,
2013-04-29 09:42:00,56.0,51.0,29.73,NE,49,3.0,5.0,82,0.00,,,0.00,,2013-04-29 14:42:00,
2013-04-29 09:52:00,57.0,51.0,29.76,NNE,25,2.0,8.0,80,0.00,,,0.00,,2013-04-29 14:52:00,
2013-04-29 10:01:00,57.0,51.0,29.74,NE,44,0.0,3.0,81,0.00,,,0.00,,2013-04-29 15:01:00,
2013-04-29 10:12:00,57.0,51.0,29.74,NE,44,0.0,3.0,81,0.00,,,0.00,,2013-04-29 15:12:00,
2013-04-29 10:21:00,57.0,51.0,29.73,ESE,114,4.0,6.0,81,0.00,,,0.00,,2013-04-29 15:21:00,
2013-04-29 10:33:00,58.0,52.0,29.73,SE,124,0.0,4.0,80,0.00,,,0.00,,2013-04-29 15:33:00,
2013-04-29 10:42:00,58.0,52.0,29.73,SE,124,0.0,4.0,80,0.00,,,0.00,,2013-04-29 15:42:00,
2013-04-29 10:53:00,60.0,53.0,29.72,ESE,102,1.0,5.0,78,0.00,,,0.00,,2013-04-29 15:53:00,
2013-04-29 11:02:00,61.0,53.0,29.72,NNW,332,0.0,5.0,76,0.00,,,0.00,,2013-04-29 16:02:00,
2013-04-29 11:12:00,61.0,53.0,29.72,NNW,332,0.0,5.0,76,0.00,,,0.00,,2013-04-29 16:12:00,
2013-04-29 11:23:00,62.0,55.0,29.71,ENE,76,1.0,6.0,77,0.00,,,0.00,,2013-04-29 16:23:00,
2013-04-29 11:32:00,64.0,56.0,29.70,ENE,65,0.0,6.0,74,0.00,,,0.00,,2013-04-29 16:32:00,
2013-04-29 11:42:00,64.0,56.0,29.70,ENE,65,0.0,6.0,74,0.00,,,0.00,,2013-04-29 16:42:00,
2013-04-29 11:52:00,66.0,56.0,29.69,NE,42,2.0,5.0,70,0.00,,,0.00,,2013-04-29 16:52:00,
2013-04-29 12:02:00,67.0,57.0,29.69,East,96,6.0,7.0,70,0.00,,,0.00,,2013-04-29 17:02:00,
2013-04-29 12:12:00,67.0,57.0,29.69,East,96,6.0,7.0,70,0.00,,,0.00,,2013-04-29 17:12:00,
2013-04-29 12:22:00,68.0,57.0,29.69,ENE,65,2.0,7.0,67,0.00,,,0.00,,2013-04-29 17:22:00,
2013-04-29 12:32:00,69.0,57.0,29.69,NNW,343,0.0,4.0,66,0.00,,,0.00,,2013-04-29 17:32:00,
2013-04-29 12:42:00,69.0,57.0,29.69,NNW,343,0.0,4.0,66,0.00,,,0.00,,2013-04-29 17:42:00,
2013-04-29 12:52:00,70.0,57.0,29.67,North,355,0.0,6.0,64,0.00,,,0.00,,2013-04-29 17:52:00,
2013-04-29 13:01:00,71.0,57.0,29.67,North,355,1.0,4.0,62,0.00,,,0.00,,2013-04-29 18:01:00,
2013-04-29 13:13:00,71.0,57.0,29.67,North,355,1.0,4.0,62,0.00,,,0.00,,2013-04-29 18:13:00,
2013-04-29 13:22:00,73.0,58.0,29.66,NNW,327,0.0,6.0,60,0.00,,,0.00,,2013-04-29 18:22:00,
2013-04-29 13:32:00,74.0,58.0,29.66,ENE,73,1.0,4.0,57,0.00,,,0.00,,2013-04-29 18:32:00,
2013-04-29 13:42:00,74.0,58.0,29.66,ENE,73,1.0,4.0,57,0.00,,,0.00,,2013-04-29 18:42:00,
2013-04-29 13:52:00,76.0,61.0,29.65,South,175,2.0,6.0,60,0.00,,,0.00,,2013-04-29 18:52:00,
2013-04-29 14:01:00,75.0,58.0,29.64,SSE,162,7.0,8.0,55,0.00,,,0.00,,2013-04-29 19:01:00,
2013-04-29 14:11:00,75.0,58.0,29.64,SSE,162,7.0,8.0,55,0.00,,,0.00,,2013-04-29 19:11:00,
2013-04-29 14:21:00,75.0,59.0,29.63,South,178,3.0,7.0,58,0.00,,,0.00,,2013-04-29 19:21:00,
2013-04-29 14:31:00,76.0,58.0,29.63,South,189,4.0,7.0,53,0.00,,,0.00,,2013-04-29 19:31:00,
2013-04-29 14:41:00,76.0,58.0,29.63,South,189,4.0,7.0,53,0.00,,,0.00,,2013-04-29 19:41:00,
2013-04-29 14:52:00,76.0,58.0,29.60,SE,133,4.0,8.0,53,0.00,,,0.00,,2013-04-29 19:52:00,
2013-04-29 15:02:00,78.0,61.0,29.61,SW,214,0.0,6.0,56,0.00,,,0.00,,2013-04-29 20:02:00,
2013-04-29 15:11:00,78.0,61.0,29.61,SW,214,0.0,6.0,56,0.00,,,0.00,,2013-04-29 20:11:00,
2013-04-29 15:21:00,79.0,59.0,29.61,SW,216,4.0,5.0,51,0.00,,,0.00,,2013-04-29 20:21:00,
2013-04-29 15:32:00,80.0,60.0,29.60,SSW,198,5.0,8.0,50,0.00,,,0.00,,2013-04-29 20:32:00,
2013-04-29 15:42:00,80.0,60.0,29.60,SSW,198,5.0,8.0,50,0.00,,,0.00,,2013-04-29 20:42:00,
2013-04-29 15:52:00,80.0,56.0,29.58,SSW,192,5.0,7.0,44,0.00,,,0.00,,2013-04-29 20:52:00,
2013-04-29 16:01:00,81.0,57.0,29.58,SSW,211,4.0,9.0,44,0.00,,,0.00,,2013-04-29 21:01:00,
2013-04-29 16:11:00,81.0,57.0,29.58,SSW,211,4.0,9.0,44,0.00,,,0.00,,2013-04-29 21:11:00,
2013-04-29 16:21:00,82.0,58.0,29.57,South,179,5.0,9.0,44,0.00,,,0.00,,2013-04-29 21:21:00,
2013-04-29 16:33:00,82.0,58.0,29.57,SSW,193,4.0,7.0,44,0.00,,,0.00,,2013-04-29 21:33:00,
2013-04-29 16:42:00,82.0,58.0,29.57,SSW,193,4.0,7.0,44,0.00,,,0.00,,2013-04-29 21:42:00,
2013-04-29 16:53:00,82.0,55.0,29.56,South,180,5.0,8.0,40,0.00,,,0.00,,2013-04-29 21:53:00,
2013-04-29 17:02:00,82.0,55.0,29.56,South,179,5.0,9.0,39,0.00,,,0.00,,2013-04-29 22:02:00,
2013-04-29 17:13:00,82.0,55.0,29.56,South,179,5.0,9.0,39,0.00,,,0.00,,2013-04-29 22:13:00,
2013-04-29 17:23:00,83.0,54.0,29.55,SSW,209,2.0,6.0,37,0.00,,,0.00,,2013-04-29 22:23:00,
2013-04-29 17:32:00,83.0,54.0,29.55,SSW,203,3.0,5.0,37,0.00,,,0.00,,2013-04-29 22:32:00,
2013-04-29 17:42:00,83.0,54.0,29.55,SSW,203,3.0,5.0,37,0.00,,,0.00,,2013-04-29 22:42:00,
2013-04-29 17:52:00,84.0,56.0,29.54,SSE,150,0.0,5.0,38,0.00,,,0.00,,2013-04-29 22:52:00,
2013-04-29 18:02:00,84.0,53.0,29.52,SSW,200,6.0,10.0,35,0.00,,,0.00,,2013-04-29 23:02:00,
2013-04-29 18:11:00,84.0,53.0,29.52,SSW,200,6.0,10.0,35,0.00,,,0.00,,2013-04-29 23:11:00,
2013-04-29 18:22:00,84.0,55.0,29.52,SSE,153,5.0,8.0,37,0.00,,,0.00,,2013-04-29 23:22:00,
2013-04-29 18:32:00,83.0,52.0,29.52,South,185,6.0,10.0,34,0.00,,,0.00,,2013-04-29 23:32:00,
2013-04-29 18:42:00,83.0,52.0,29.52,South,185,6.0,10.0,34,0.00,,,0.00,,2013-04-29 23:42:00,
2013-04-29 18:52:00,83.0,52.0,29.51,South,189,4.0,10.0,35,0.00,,,0.00,,2013-04-29 23:52:00,
2013-04-29 19:01:00,83.0,53.0,29.50,South,177,4.0,7.0,36,0.00,,,0.00,,2013-04-30 00:01:00,
2013-04-29 19:11:00,83.0,53.0,29.50,South,177,4.0,7.0,36,0.00,,,0.00,,2013-04-30 00:11:00,
2013-04-29 19:21:00,82.0,52.0,29.50,South,182,5.0,9.0,36,0.00,,,0.00,,2013-04-30 00:21:00,
2013-04-29 19:32:00,81.0,54.0,29.50,South,173,4.0,8.0,39,0.00,,,0.00,,2013-04-30 00:32:00,
2013-04-29 19:41:00,81.0,54.0,29.50,South,173,4.0,8.0,39,0.00,,,0.00,,2013-04-30 00:41:00,
2013-04-29 19:52:00,80.0,54.0,29.50,SSE,165,5.0,6.0,41,0.00,,,0.00,,2013-04-30 00:52:00,
2013-04-29 20:01:00,79.0,54.0,29.50,SSE,157,4.0,7.0,42,0.00,,,0.00,,2013-04-30 01:01:00,
2013-04-29 20:11:00,79.0,54.0,29.50,SSE,157,4.0,7.0,42,0.00,,,0.00,,2013-04-30 01:11:00,
2013-04-29 20:21:00,78.0,55.0,29.49,SSE,157,2.0,5.0,45,0.00,,,0.00,,2013-04-30 01:21:00,
2013-04-29 20:32:00,77.0,57.0,29.50,SSE,157,0.0,4.0,51,0.00,,,0.00,,2013-04-30 01:32:00,
2013-04-29 20:41:00,77.0,57.0,29.50,SSE,157,0.0,4.0,51,0.00,,,0.00,,2013-04-30 01:41:00,
2013-04-29 20:52:00,74.0,55.0,29.50,SSE,157,0.0,0.0,51,0.00,,,0.00,,2013-04-30 01:52:00,
2013-04-29 21:01:00,73.0,55.0,29.50,SSE,157,0.0,0.0,54,0.00,,,0.00,,2013-04-30 02:01:00,
2013-04-29 21:11:00,71.0,57.0,29.51,SSE,157,0.0,0.0,62,0.00,,,0.00,,2013-04-30 02:11:00,
2013-04-29 21:21:00,71.0,57.0,29.51,SSE,157,0.0,0.0,62,0.00,,,0.00,,2013-04-30 02:21:00,
2013-04-29 21:31:00,70.0,55.0,29.51,SSE,157,0.0,2.0,60,0.00,,,0.00,,2013-04-30 02:31:00,
2013-04-29 21:41:00,70.0,55.0,29.51,SSE,157,0.0,2.0,60,0.00,,,0.00,,2013-04-30 02:41:00,
2013-04-29 21:51:00,69.0,55.0,29.50,SSE,157,3.0,5.0,62,0.00,,,0.00,,2013-04-30 02:51:00,
2013-04-29 22:01:00,68.0,55.0,29.50,SSE,157,2.0,5.0,64,0.00,,,0.00,,2013-04-30 03:01:00,
2013-04-29 22:11:00,69.0,56.0,29.50,SSE,157,2.0,5.0,64,0.00,,,0.00,,2013-04-30 03:11:00,
2013-04-29 22:21:00,69.0,56.0,29.50,SSE,157,2.0,5.0,64,0.00,,,0.00,,2013-04-30 03:21:00,
2013-04-29 22:33:00,69.0,57.0,29.50,SSE,157,3.0,4.0,66,0.00,,,0.00,,2013-04-30 03:33:00,
2013-04-29 22:42:00,69.0,57.0,29.50,SSE,157,3.0,4.0,66,0.00,,,0.00,,2013-04-30 03:42:00,
2013-04-29 22:52:00,69.0,57.0,29.49,SSE,157,1.0,5.0,65,0.00,,,0.00,,2013-04-30 03:52:00,
2013-04-29 23:02:00,70.0,57.0,29.49,SSE,157,3.0,4.0,63,0.00,,,0.00,,2013-04-30 04:02:00,
2013-04-29 23:12:00,70.0,57.0,29.49,SSE,157,3.0,4.0,63,0.00,,,0.00,,2013-04-30 04:12:00,
2013-04-29 23:22:00,71.0,58.0,29.49,SSW,196,2.0,5.0,64,0.00,,,0.00,,2013-04-30 04:22:00,
2013-04-29 23:32:00,72.0,59.0,29.48,South,178,3.0,7.0,64,0.00,,,0.00,,2013-04-30 04:32:00,
2013-04-29 23:42:00,72.0,59.0,29.48,South,178,3.0,7.0,64,0.00,,,0.00,,2013-04-30 04:42:00,
2013-04-29 23:52:00,72.0,59.0,29.47,South,173,6.0,9.0,64,0.00,,,0.00,,2013-04-30 04:52:00,